Precipitable_Water
0.31 0.32 0.31 0.29 0.27 0.29 0.27 0.24 0.21 0.20 0.21 0.26 0.31 0.32 0.33 0.36 0.37 0.38 0.40 0.44 0.47 0.49 0.52 0.55 0.57 0.60 0.62 0.65 0.68 0.70 0.68 0.66 0.65 0.66 0.66 0.65 0.64 0.63 0.62 0.58 0.53 0.50 0.47 0.46
0.30 0.30 0.29 0.26 0.28 0.28 0.28 0.29 0.28 0.27 0.26 0.34 0.36 0.38 0.37 0.37 0.37 0.37 0.40 0.43 0.47 0.50 0.52 0.55 0.57 0.59 0.61 0.62 0.63 0.64 0.63 0.61 0.61 0.61 0.60 0.57 0.53 0.48 0.44 0.42 0.41 0.40 0.39 0.38
0.26 0.29 0.26 0.23 0.25 0.28 0.28 0.31 0.29 0.25 0.28 0.35 0.35 0.37 0.40 0.42 0.41 0.41 0.42 0.44 0.47 0.51 0.54 0.55 0.56 0.58 0.59 0.60 0.61 0.59 0.56 0.54 0.51 0.49 0.44 0.38 0.34 0.31 0.30 0.29 0.30 0.30 0.30 0.31
0.28 0.29 0.21 0.30 0.34 0.34 0.32 0.33 0.35 0.33 0.35 0.41 0.42 0.44 0.45 0.47 0.45 0.46 0.48 0.48 0.51 0.52 0.53 0.55 0.56 0.55 0.54 0.52 0.48 0.44 0.41 0.37 0.34 0.30 0.25 0.24 0.23 0.23 0.24 0.26 0.26 0.27 0.29 0.31
0.27 0.26 0.29 0.32 0.33 0.30 0.30 0.31 0.36 0.37 0.39 0.41 0.45 0.47 0.44 0.51 0.52 0.52 0.51 0.50 0.50 0.51 0.51 0.51 0.48 0.45 0.40 0.37 0.36 0.35 0.34 0.32 0.30 0.27 0.25 0.26 0.25 0.26 0.27 0.27 0.27 0.27 0.28 0.28
0.29 0.23 0.20 0.25 0.30 0.35 0.33 0.22 0.29 0.28 0.24 0.30 0.39 0.31 0.36 0.46 0.47 0.45 0.47 0.48 0.47 0.46 0.45 0.42 0.38 0.38 0.36 0.35 0.35 0.32 0.31 0.29 0.28 0.28 0.27 0.27 0.27 0.28 0.28 0.27 0.26 0.25 0.24 0.24
0.26 0.23 0.23 0.29 0.29 0.26 0.14 0.15 0.22 0.24 0.25 0.24 0.22 0.26 0.32 0.35 0.39 0.39 0.41 0.41 0.41 0.39 0.36 0.35 0.37 0.38 0.35 0.34 0.31 0.31 0.29 0.29 0.28 0.29 0.28 0.28 0.28 0.27 0.26 0.25 0.24 0.23 0.22 0.22
0.23 0.21 0.19 0.31 0.25 0.19 0.22 0.24 0.23 0.22 0.25 0.26 0.28 0.27 0.30 0.31 0.31 0.33 0.34 0.35 0.36 0.34 0.34 0.36 0.38 0.37 0.34 0.31 0.31 0.30 0.29 0.28 0.28 0.28 0.28 0.27 0.26 0.26 0.25 0.24 0.22 0.22 0.21 0.21
0.19 0.19 0.27 0.27 0.25 0.27 0.27 0.24 0.23 0.23 0.24 0.26 0.26 0.28 0.29 0.28 0.29 0.31 0.33 0.33 0.33 0.33 0.33 0.34 0.35 0.35 0.32 0.31 0.30 0.28 0.27 0.26 0.26 0.27 0.28 0.27 0.25 0.24 0.22 0.22 0.21 0.20 0.20 0.20
0.19 0.22 0.24 0.26 0.27 0.26 0.27 0.25 0.25 0.25 0.25 0.25 0.24 0.24 0.24 0.25 0.26 0.28 0.30 0.30 0.31 0.32 0.32 0.33 0.33 0.32 0.30 0.29 0.28 0.26 0.25 0.25 0.26 0.26 0.24 0.24 0.23 0.22 0.21 0.21 0.20 0.20 0.19 0.18
0.19 0.22 0.25 0.26 0.28 0.29 0.30 0.30 0.30 0.29 0.29 0.27 0.27 0.27 0.27 0.27 0.27 0.28 0.29 0.30 0.31 0.31 0.30 0.29 0.28 0.27 0.26 0.25 0.25 0.25 0.24 0.24 0.24 0.22 0.20 0.19 0.19 0.19 0.19 0.20 0.21 0.20 0.20 0.20
0.15 0.20 0.19 0.20 0.23 0.25 0.25 0.25 0.26 0.26 0.26 0.26 0.27 0.26 0.26 0.26 0.27 0.27 0.27 0.27 0.27 0.26 0.25 0.25 0.25 0.24 0.24 0.25 0.24 0.23 0.22 0.21 0.21 0.19 0.18 0.18 0.17 0.16 0.18 0.19 0.19 0.19 0.20 0.20
0.16 0.20 0.21 0.22 0.23 0.25 0.25 0.25 0.27 0.27 0.27 0.26 0.27 0.27 0.27 0.26 0.26 0.26 0.25 0.25 0.24 0.24 0.24 0.25 0.24 0.24 0.23 0.22 0.21 0.20 0.18 0.18 0.17 0.16 0.15 0.16 0.16 0.15 0.14 0.15 0.16 0.16 0.17 0.18
0.18 0.19 0.17 0.19 0.18 0.21 0.22 0.23 0.24 0.24 0.25 0.25 0.25 0.26 0.26 0.26 0.26 0.26 0.25 0.25 0.25 0.25 0.24 0.23 0.22 0.21 0.21 0.19 0.18 0.16 0.15 0.15 0.15 0.14 0.14 0.14 0.14 0.14 0.14 0.13 0.13 0.14 0.15 0.15
0.17 0.19 0.18 0.19 0.19 0.19 0.20 0.20 0.20 0.20 0.20 0.21 0.22 0.21 0.22 0.21 0.21 0.21 0.21 0.20 0.20 0.19 0.18 0.17 0.16 0.16 0.16 0.16 0.15 0.14 0.14 0.13 0.14 0.14 0.13 0.13 0.12 0.12 0.12 0.12 0.11 0.11 0.11 0.12
0.17 0.18 0.18 0.18 0.18 0.18 0.18 0.18 0.18 0.18 0.18 0.18 0.18 0.18 0.17 0.17 0.17 0.16 0.16 0.15 0.15 0.14 0.14 0.13 0.12 0.12 0.12 0.12 0.11 0.11 0.11 0.11 0.12 0.12 0.11 0.10 0.10 0.10 0.11 0.10 0.10 0.10 0.09 0.10
0.15 0.15 0.16 0.16 0.17 0.17 0.17 0.18 0.17 0.17 0.16 0.16 0.16 0.15 0.15 0.14 0.13 0.13 0.12 0.12 0.11 0.11 0.10 0.10 0.09 0.09 0.09 0.09 0.08 0.08 0.09 0.09 0.10 0.11 0.10 0.09 0.10 0.10 0.10 0.10 0.09 0.09 0.09 0.10
0.17 0.17 0.17 0.17 0.16 0.15 0.15 0.15 0.14 0.14 0.13 0.13 0.12 0.12 0.11 0.10 0.09 0.09 0.09 0.09 0.09 0.09 0.08 0.08 0.08 0.08 0.09 0.09 0.09 0.09 0.09 0.09 0.09 0.09 0.10 0.09 0.09 0.10 0.09 0.08 0.07 0.06 0.07 0.07
0.14 0.13 0.13 0.13 0.13 0.13 0.12 0.12 0.12 0.12 0.12 0.11 0.11 0.10 0.10 0.09 0.09 0.09 0.09 0.08 0.08 0.07 0.07 0.08 0.09 0.10 0.09 0.09 0.09 0.09 0.09 0.08 0.08 0.08 0.09 0.09 0.09 0.08 0.07 0.07 0.07 0.06 0.06 0.06
0.13 0.13 0.13 0.12 0.12 0.12 0.11 0.11 0.11 0.11 0.10 0.10 0.10 0.09 0.08 0.08 0.08 0.08 0.07 0.07 0.07 0.07 0.07 0.08 0.08 0.08 0.08 0.08 0.09 0.08 0.08 0.09 0.08 0.08 0.08 0.08 0.08 0.08 0.08 0.08 0.07 0.07 0.07 0.06
0.11 0.11 0.10 0.10 0.10 0.10 0.10 0.10 0.09 0.09 0.09 0.08 0.08 0.07 0.06 0.06 0.06 0.06 0.06 0.05 0.06 0.06 0.07 0.08 0.08 0.08 0.08 0.08 0.08 0.08 0.08 0.07 0.07 0.07 0.08 0.08 0.08 0.08 0.08 0.08 0.07 0.07 0.07 0.06
0.10 0.10 0.09 0.09 0.08 0.08 0.08 0.08 0.08 0.07 0.07 0.07 0.07 0.06 0.06 0.05 0.05 0.05 0.05 0.05 0.06 0.06 0.07 0.07 0.07 0.08 0.08 0.09 0.09 0.09 0.09 0.08 0.08 0.08 0.08 0.08 0.09 0.09 0.08 0.08 0.07 0.07 0.07 0.06
0.09 0.09 0.08 0.07 0.06 0.06 0.07 0.07 0.07 0.07 0.07 0.07 0.06 0.06 0.06 0.06 0.06 0.05 0.05 0.06 0.07 0.07 0.08 0.08 0.08 0.09 0.10 0.11 0.11 0.11 0.10 0.09 0.09 0.09 0.09 0.09 0.09 0.09 0.08 0.08 0.08 0.08 0.07 0.07
0.09 0.08 0.07 0.07 0.07 0.07 0.06 0.06 0.07 0.07 0.07 0.07 0.07 0.07 0.07 0.07 0.07 0.07 0.08 0.08 0.09 0.10 0.09 0.10 0.10 0.11 0.11 0.11 0.12 0.11 0.11 0.10 0.10 0.10 0.10 0.10 0.09 0.09 0.09 0.08 0.08 0.08 0.08 0.07
0.09 0.07 0.06 0.07 0.07 0.07 0.07 0.08 0.08 0.07 0.07 0.07 0.08 0.08 0.08 0.08 0.08 0.08 0.08 0.08 0.08 0.09 0.09 0.10 0.11 0.11 0.11 0.11 0.10 0.10 0.09 0.09 0.09 0.08 0.08 0.09 0.09 0.09 0.09 0.09 0.08 0.08 0.08 0.07
0.08 0.06 0.07 0.08 0.08 0.08 0.08 0.08 0.08 0.08 0.08 0.08 0.09 0.09 0.09 0.09 0.09 0.09 0.09 0.09 0.09 0.09 0.10 0.10 0.10 0.10 0.10 0.10 0.09 0.09 0.09 0.09 0.09 0.09 0.09 0.09 0.09 0.09 0.09 0.09 0.09 0.09 0.08 0.08
0.07 0.08 0.08 0.08 0.08 0.08 0.08 0.08 0.08 0.08 0.08 0.08 0.08 0.09 0.09 0.10 0.10 0.10 0.10 0.10 0.10 0.10 0.10 0.10 0.11 0.11 0.11 0.10 0.10 0.10 0.10 0.10 0.10 0.10 0.10 0.10 0.09 0.09 0.09 0.09 0.09 0.09 0.09 0.09
Wind_Speed
22 20 20 22 21 24 29 31 24 24 26 23 23 22 21 20 21 22 22 22 23 22 23 23 23 23 23 23 24 24 24 23 23 23 23 23 23 24 24 24 25 25 25 26
23 22 22 24 23 24 27 23 26 23 24 21 20 21 23 24 24 24 24 23 23 23 24 24 23 24 24 23 24 24 24 24 24 23 23 23 24 24 24 24 25 25 26 27
23 21 21 24 27 26 24 24 25 28 29 24 23 25 27 26 27 27 26 25 25 25 25 25 25 25 25 25 25 24 23 23 23 23 24 24 24 24 25 25 26 27 28 30
20 18 23 23 22 21 24 25 29 26 26 27 28 27 27 29 28 27 28 27 27 27 27 26 26 26 25 24 24 23 23 23 24 24 24 24 24 25 26 27 28 30 31 33
20 22 23 22 20 19 20 23 23 27 26 24 22 22 24 27 28 28 28 27 27 26 27 26 26 26 25 25 25 25 24 24 25 25 25 26 27 28 29 30 32 33 35 36
16 17 19 18 19 23 22 24 22 23 22 22 22 24 24 23 24 24 26 27 27 26 26 26 26 26 26 25 25 25 26 26 27 27 28 29 30 31 33 34 35 36 38 39
19 19 20 18 18 17 16 19 18 18 21 22 20 21 21 22 22 24 25 26 26 26 27 27 27 27 26 26 26 27 28 28 29 29 31 32 33 34 36 37 38 39 40 41
17 18 22 19 19 20 19 18 17 17 17 18 18 16 17 18 19 21 23 25 26 26 26 26 27 27 27 27 28 29 29 30 31 32 33 34 35 37 38 39 40 41 41 42
16 16 16 15 15 16 17 18 17 16 15 16 16 17 18 18 18 20 22 24 25 26 26 26 27 28 28 29 30 30 31 32 33 34 35 36 38 39 40 40 41 42 42 43
16 17 17 17 16 16 16 15 15 15 16 16 17 18 18 18 19 20 22 23 25 26 26 27 28 28 29 30 31 31 32 33 35 36 37 39 40 40 41 41 42 43 44 45
18 19 20 18 19 20 19 18 18 18 18 19 20 20 21 21 22 22 24 25 26 26 27 28 29 29 30 31 32 33 34 36 37 38 39 40 40 41 41 42 43 44 45 46
20 22 21 20 19 20 19 19 19 18 18 19 20 21 21 22 23 23 24 25 26 26 27 29 30 31 32 33 34 36 37 38 39 40 40 41 41 42 43 44 45 46 47 47
22 22 21 21 21 21 21 21 20 19 20 20 21 21 22 23 24 24 25 26 27 28 29 31 32 33 35 36 37 38 39 40 40 41 42 42 43 44 45 45 46 46 46 46
22 23 23 22 23 22 21 21 20 20 21 21 21 22 23 23 24 26 27 28 29 30 32 33 34 36 37 38 39 39 40 41 42 43 44 45 45 45 46 46 45 45 45 46
22 21 22 21 21 21 21 21 21 21 22 22 22 23 24 25 26 27 29 30 31 32 34 35 36 38 39 39 40 41 42 43 44 44 45 45 45 45 46 45 46 46 47 47
20 19 19 20 21 21 21 21 21 22 22 23 23 24 25 26 27 28 30 31 32 34 36 37 38 39 40 41 42 43 43 44 44 45 45 45 45 46 46 46 47 48 48 49
16 16 17 17 18 19 20 21 21 22 23 24 25 26 27 28 29 30 32 33 34 36 37 38 40 40 41 42 42 43 44 44 45 45 46 46 46 46 47 47 48 48 48 48
16 16 16 17 17 18 19 19 20 21 22 24 24 26 27 28 30 31 33 34 35 37 38 40 40 41 41 42 43 44 45 45 46 46 47 46 46 46 45 45 44 44 43 43
14 15 16 17 19 19 21 22 23 24 25 26 27 29 30 32 33 34 35 36 38 39 40 40 41 42 43 44 45 45 45 45 45 45 44 44 43 42 42 41 40 40 39 38
17 18 19 20 22 23 24 25 27 28 29 30 31 33 34 36 36 38 38 39 40 41 41 41 42 42 42 42 42 42 42 41 41 41 40 40 39 38 38 37 36 35 35 35
20 21 22 23 24 25 27 28 29 30 32 33 33 34 35 36 36 36 37 37 37 37 37 38 37 37 37 37 37 36 37 37 36 36 35 34 34 34 33 33 33 32 32 32
20 21 23 24 25 26 27 28 28 29 30 30 31 31 31 32 32 32 33 33 33 33 33 32 32 33 32 33 32 32 31 31 30 30 31 31 31 31 30 30 29 29 29 29
20 21 22 23 23 23 23 24 25 25 25 25 25 25 25 26 26 26 26 26 26 27 27 27 28 28 28 28 27 28 28 29 29 29 29 29 29 28 28 28 28 27 27 27
20 20 20 19 20 20 21 21 21 21 22 22 23 23 23 23 23 24 24 25 25 25 25 26 26 26 26 26 26 26 26 27 27 28 28 28 28 27 27 27 27 26 26 26
19 18 17 17 17 18 18 19 21 22 22 23 24 24 25 25 25 25 25 25 26 26 25 26 27 27 26 26 26 26 26 26 26 26 26 26 26 27 27 27 27 26 26 25
17 16 15 15 16 17 19 20 21 23 24 25 26 26 27 27 27 28 27 27 27 27 27 26 26 26 26 27 26 26 26 26 25 25 25 25 26 26 26 26 26 26 26 25
16 16 15 16 17 19 20 21 22 23 24 25 26 27 28 28 29 29 28 28 28 28 27 27 26 26 25 25 26 26 26 26 26 26 26 26 26 26 26 26 26 25 25 25
Wind_Direction
245 245 244 246 246 237 236 240 242 254 246 249 241 237 234 232 230 228 228 227 225 223 223 222 222 222 222 223 224 225 226 229 231 234 237 241 244 247 250 253 255 256 257 259
246 247 249 251 250 243 243 248 251 251 256 252 248 241 239 234 231 230 230 228 225 223 221 220 221 223 224 224 226 227 229 231 234 237 240 243 247 250 252 254 256 258 260 262
250 251 255 260 243 241 245 248 246 249 252 248 250 242 240 236 233 231 228 227 225 225 226 227 225 225 226 227 227 227 229 232 236 240 243 247 249 251 254 257 260 262 265 266
248 248 247 253 252 248 250 253 248 256 257 254 253 252 245 241 235 232 230 229 230 229 228 229 226 225 224 223 225 228 232 235 240 244 247 249 252 255 258 261 264 266 268 270
243 246 262 254 251 249 246 257 259 255 254 253 245 247 250 242 238 235 231 230 230 227 225 223 222 222 224 226 229 233 238 242 245 248 250 253 257 260 263 266 268 270 272 273
241 244 248 256 257 256 255 259 261 258 251 241 241 245 246 239 232 232 229 226 224 223 222 222 224 226 228 232 236 240 244 246 249 252 254 258 262 265 268 270 272 273 274 275
245 250 257 259 261 257 248 258 267 260 247 240 247 251 238 233 233 229 224 222 222 222 224 227 229 231 232 236 242 246 248 250 253 256 260 263 266 268 271 272 274 275 276 276
247 248 255 265 258 253 258 263 265 259 250 241 238 237 232 229 227 223 221 222 223 224 227 230 232 233 238 243 247 250 252 254 258 262 264 267 269 271 273 274 275 276 277 277
250 253 257 264 260 264 260 259 259 253 246 236 232 231 230 229 227 225 224 224 226 227 230 235 238 241 244 249 252 254 256 259 262 265 268 270 272 274 275 276 276 277 277 278
250 258 260 262 263 266 266 261 257 250 245 240 236 233 230 230 230 229 229 230 231 233 236 240 243 245 249 252 255 257 260 263 266 269 271 273 274 275 275 276 277 278 279 279
258 261 261 265 265 265 264 263 258 254 250 245 242 240 238 237 236 236 236 236 237 238 240 243 246 250 253 257 259 261 264 266 269 271 273 274 275 276 277 277 278 279 279 280
261 266 259 263 265 263 261 261 260 256 253 251 245 243 241 241 241 240 239 240 241 243 245 248 252 255 258 261 263 265 267 270 272 273 274 275 276 277 278 279 280 280 280 280
264 265 262 261 265 264 261 261 260 258 255 251 250 247 246 245 245 244 245 246 248 249 251 254 257 259 262 265 267 268 270 272 273 274 275 276 277 278 279 280 280 280 280 280
268 263 264 267 263 262 260 260 258 257 257 255 252 251 249 250 249 250 251 253 254 256 258 260 262 264 266 267 269 271 272 273 274 275 276 277 278 278 279 279 279 280 280 281
271 267 262 260 261 261 260 258 258 259 258 257 256 255 254 254 255 256 257 259 260 261 263 265 266 267 268 270 271 272 273 274 275 276 277 278 278 278 279 279 279 280 280 281
269 266 264 262 262 261 260 260 258 259 259 259 258 259 259 258 259 260 262 263 264 265 266 268 269 270 271 272 273 274 274 275 276 277 277 278 279 279 279 279 280 281 281 281
268 267 266 265 263 262 262 262 260 260 260 260 261 262 262 263 264 265 266 267 268 268 269 270 271 272 273 273 274 275 275 276 276 277 278 278 279 279 279 280 281 281 282 281
269 268 267 265 263 263 265 264 263 263 264 264 264 265 267 267 267 268 270 271 272 273 273 273 273 274 274 274 275 276 276 276 277 277 278 279 279 278 279 280 281 281 282 282
272 271 271 270 269 268 268 268 268 268 268 268 269 270 270 271 272 273 273 274 275 275 276 276 275 275 275 276 277 277 277 277 277 277 278 278 277 278 279 280 280 281 282 282
277 276 275 275 274 273 273 273 272 272 272 272 273 273 274 274 275 275 276 276 276 276 277 277 277 277 277 277 277 277 277 277 277 277 277 276 276 277 278 279 279 280 281 281
280 279 279 279 279 278 277 277 276 276 276 275 275 275 276 276 276 277 277 278 278 278 278 278 277 277 278 278 278 278 278 277 277 276 275 276 276 276 277 277 278 279 281 282
283 283 284 284 284 283 282 281 280 279 279 278 277 277 278 278 278 279 278 278 280 280 279 279 279 278 278 278 277 277 277 277 276 276 275 276 275 276 276 276 277 279 281 282
287 289 289 289 287 287 287 286 284 283 282 281 280 279 279 280 281 281 282 283 282 281 281 280 280 279 280 280 278 278 277 277 277 277 276 276 275 274 275 275 277 278 280 281
290 292 292 291 291 292 291 291 289 287 285 284 283 282 282 283 283 283 284 284 285 285 283 282 281 280 280 280 280 279 279 279 279 278 277 276 274 273 274 275 276 277 279 280
291 292 292 294 294 295 295 296 295 292 290 287 285 284 282 282 281 284 285 286 286 286 285 284 282 281 280 280 280 280 280 280 280 280 278 276 274 273 274 274 275 275 277 276
287 288 291 292 297 300 302 302 300 298 295 291 288 286 284 282 282 282 283 283 284 285 284 284 283 282 280 279 279 279 279 279 279 280 279 278 276 275 274 274 274 274 273 272
281 282 288 294 298 302 304 304 305 305 302 298 294 290 287 284 282 281 281 282 283 283 283 283 282 282 281 281 280 279 279 279 279 280 280 278 276 275 274 273 273 273 271 270